UAE958 OLBA-OMDB

Flight info

Callsign UAE958
Flight time 3h 13m
Altitude 37000
Route LATEB DCT BASEM R785 ABBAS DCT TRF R23 NEVOL N318 TAMRO T503 KSA M440 SITER DCT SBT DCT TANSU/N0475F330 G783 ASPED Q308 KIPOK Q568 IMPED
Aircraft B77W/H-SDE1E2E3FGHIJ2J3J4J5M1RWXY/LB1D1

Departure

Time 2026-05-08 22:08
Airport Beirut Rafic Hariri International Airport (OLBA)

Arrival

Time 2026-05-09 01:21
Airport Dubai International Airport (OMDB)
Time Latitude Longitude Altitude Speed Heading
2026-05-08 21:43 33.82501 35.49103 18 ft 0 kts 104°
2026-05-08 21:58 33.82504 35.49088 21 ft 3 kts 104°
2026-05-08 21:59 33.82509 35.49065 23 ft 3 kts 106°
2026-05-08 21:59 33.82515 35.49042 24 ft 3 kts 106°
2026-05-08 21:59 33.82521 35.49018 23 ft 3 kts 105°
2026-05-08 21:59 33.82526 35.48996 21 ft 3 kts 119°
2026-05-08 22:00 33.82536 35.48983 19 ft 3 kts 173°
2026-05-08 22:00 33.82552 35.48981 19 ft 3 kts 175°
2026-05-08 22:00 33.82571 35.48979 21 ft 2 kts 175°
2026-05-08 22:00 33.82576 35.48979 21 ft 1 kts 175°
2026-05-08 22:03 33.82570 35.48980 22 ft 2 kts 175°
2026-05-08 22:03 33.82542 35.48983 19 ft 5 kts 174°
2026-05-08 22:03 33.82494 35.48988 18 ft 8 kts 174°
2026-05-08 22:03 33.82427 35.48996 19 ft 11 kts 174°
2026-05-08 22:04 33.82340 35.49005 19 ft 14 kts 175°
2026-05-08 22:04 33.82238 35.49025 20 ft 16 kts 172°
2026-05-08 22:04 33.82126 35.49035 20 ft 17 kts 176°
2026-05-08 22:04 33.82004 35.49043 20 ft 18 kts 176°
2026-05-08 22:05 33.81871 35.49053 20 ft 20 kts 176°
2026-05-08 22:05 33.81758 35.49042 20 ft 15 kts 205°
2026-05-08 22:05 33.81664 35.48968 20 ft 17 kts 215°
2026-05-08 22:05 33.81555 35.48875 18 ft 21 kts 212°
2026-05-08 22:06 33.81413 35.48856 17 ft 21 kts 178°
2026-05-08 22:06 33.81271 35.48832 18 ft 21 kts 207°
2026-05-08 22:06 33.81178 35.48754 19 ft 16 kts 216°
2026-05-08 22:06 33.81147 35.48697 20 ft 2 kts 289°
2026-05-08 22:07 33.81166 35.48682 21 ft 5 kts 333°
2026-05-08 22:07 33.81217 35.48666 21 ft 16 kts 346°
2026-05-08 22:07 33.81498 35.48588 21 ft 82 kts 347°
2026-05-08 22:07 33.82394 35.48341 28 ft 180 kts 346°
2026-05-08 22:08 33.83748 35.47947 739 ft 206 kts 346°
2026-05-08 22:08 33.85125 35.47541 1895 ft 207 kts 351°
2026-05-08 22:08 33.86568 35.47201 2828 ft 215 kts 351°
2026-05-08 22:08 33.88085 35.46855 3518 ft 233 kts 351°
2026-05-08 22:09 33.89746 35.46473 4062 ft 251 kts 351°
2026-05-08 22:09 33.91518 35.46066 4746 ft 267 kts 350°
2026-05-08 22:09 33.93390 35.45635 5457 ft 280 kts 349°
2026-05-08 22:09 33.94662 35.45302 5947 ft 283 kts 342°
2026-05-08 22:10 33.96527 35.44457 6645 ft 291 kts 339°
2026-05-08 22:10 33.98492 35.43911 7521 ft 292 kts 356°
2026-05-08 22:10 34.00522 35.43887 8361 ft 297 kts 359°
2026-05-08 22:10 34.02600 35.43891 9246 ft 301 kts 359°
2026-05-08 22:11 34.04708 35.43899 10128 ft 305 kts 359°
2026-05-08 22:11 34.06882 35.43908 10668 ft 323 kts 359°
2026-05-08 22:11 34.09232 35.43915 10883 ft 352 kts 359°
2026-05-08 22:11 34.11776 35.43925 11186 ft 376 kts 359°
2026-05-08 22:12 34.14431 35.43937 11975 ft 385 kts 359°
2026-05-08 22:12 34.17123 35.43949 12982 ft 389 kts 358°
2026-05-08 22:12 34.19832 35.43962 14084 ft 389 kts 358°
2026-05-08 22:12 34.22545 35.43972 15060 ft 392 kts 358°
2026-05-08 22:13 34.25287 35.43987 15950 ft 394 kts 359°
2026-05-08 22:13 34.28019 35.44535 16587 ft 408 kts 18°
2026-05-08 22:13 34.30516 35.46248 17394 ft 420 kts 37°
2026-05-08 22:13 34.32493 35.48881 18269 ft 429 kts 55°
2026-05-08 22:14 34.33678 35.52224 19006 ft 439 kts 76°
2026-05-08 22:14 34.33965 35.55929 19772 ft 446 kts 91°
2026-05-08 22:14 34.33487 35.59657 20478 ft 453 kts 107°
2026-05-08 22:14 34.32337 35.63223 21177 ft 458 kts 113°
2026-05-08 22:15 34.31098 35.66806 21821 ft 465 kts 112°
2026-05-08 22:15 34.29886 35.70463 22487 ft 471 kts 111°
2026-05-08 22:15 34.28595 35.74127 23155 ft 477 kts 114°
2026-05-08 22:15 34.27205 35.77793 23780 ft 483 kts 114°
2026-05-08 22:16 34.25761 35.81497 24302 ft 489 kts 115°
2026-05-08 22:16 34.24302 35.85227 24886 ft 493 kts 114°
2026-05-08 22:16 34.22836 35.89001 25482 ft 497 kts 114°
2026-05-08 22:16 34.21371 35.92802 26032 ft 502 kts 114°
2026-05-08 22:17 34.19899 35.96644 26572 ft 506 kts 114°
2026-05-08 22:17 34.18415 36.00527 27085 ft 511 kts 114°
2026-05-08 22:17 34.16920 36.04441 27581 ft 515 kts 114°
2026-05-08 22:17 34.15414 36.08377 28109 ft 519 kts 114°
2026-05-08 22:18 34.13891 36.12353 28565 ft 524 kts 114°
2026-05-08 22:18 34.12354 36.16357 28980 ft 528 kts 114°
2026-05-08 22:18 34.10803 36.20393 29425 ft 532 kts 114°
2026-05-08 22:18 34.09237 36.24460 29861 ft 536 kts 114°
2026-05-08 22:19 34.07664 36.28539 30284 ft 538 kts 113°
2026-05-08 22:19 34.06082 36.32641 30682 ft 540 kts 113°
2026-05-08 22:19 34.04494 36.36753 31102 ft 541 kts 113°
2026-05-08 22:19 34.02926 36.40809 31503 ft 542 kts 113°
2026-05-08 22:20 34.01358 36.44946 31906 ft 543 kts 112°
2026-05-08 22:20 33.99813 36.49104 32300 ft 544 kts 112°
2026-05-08 22:20 33.98276 36.53274 32653 ft 545 kts 112°
2026-05-08 22:20 33.96739 36.57449 33048 ft 546 kts 112°
2026-05-08 22:21 33.95194 36.61628 33426 ft 547 kts 112°
2026-05-08 22:21 33.93643 36.65804 33826 ft 547 kts 112°
2026-05-08 22:21 33.92084 36.69986 34190 ft 548 kts 112°
2026-05-08 22:21 33.90523 36.74164 34603 ft 546 kts 112°
2026-05-08 22:22 33.88970 36.78308 35152 ft 540 kts 112°
2026-05-08 22:22 33.87429 36.82412 35670 ft 536 kts 112°
2026-05-08 22:22 33.85895 36.86496 36048 ft 535 kts 112°
2026-05-08 22:22 33.84363 36.90576 36401 ft 535 kts 112°
2026-05-08 22:23 33.82833 36.94645 36751 ft 534 kts 112°
2026-05-08 22:23 33.81305 36.98704 37121 ft 533 kts 112°
2026-05-08 22:23 33.79826 37.02627 37110 ft 537 kts 112°
2026-05-08 22:24 33.76755 37.10757 37094 ft 531 kts 112°
2026-05-08 22:24 33.73704 37.18813 37096 ft 529 kts 112°
2026-05-08 22:25 33.70657 37.26842 37099 ft 528 kts 112°
2026-05-08 22:25 33.67611 37.34849 37091 ft 527 kts 112°
2026-05-08 22:26 33.64559 37.42852 37084 ft 527 kts 112°
2026-05-08 22:26 33.61507 37.50839 37086 ft 526 kts 112°
2026-05-08 22:27 33.58440 37.58809 37079 ft 525 kts 115°
2026-05-08 22:27 33.56487 37.62519 37072 ft 528 kts 129°
2026-05-08 22:27 33.53953 37.65687 37078 ft 527 kts 140°
2026-05-08 22:27 33.51001 37.68279 37069 ft 526 kts 152°
2026-05-08 22:28 33.47718 37.70165 37083 ft 522 kts 159°
2026-05-08 22:28 33.41066 37.73745 37064 ft 526 kts 156°
2026-05-08 22:29 33.34542 37.77599 37055 ft 528 kts 155°
2026-05-08 22:29 33.27977 37.81560 37054 ft 529 kts 155°
2026-05-08 22:30 33.21392 37.85494 37050 ft 530 kts 155°
2026-05-08 22:30 33.14791 37.89399 37051 ft 530 kts 156°
2026-05-08 22:31 33.08184 37.93293 37036 ft 529 kts 155°
2026-05-08 22:31 33.01589 37.97175 37045 ft 528 kts 155°
2026-05-08 22:32 32.95118 38.00980 37048 ft 528 kts 155°
2026-05-08 22:32 32.88538 38.04844 37047 ft 527 kts 155°
2026-05-08 22:33 32.81968 38.08695 37044 ft 526 kts 155°
2026-05-08 22:33 32.75412 38.12532 37045 ft 525 kts 155°
2026-05-08 22:34 32.68858 38.16360 37053 ft 525 kts 155°
2026-05-08 22:34 32.62310 38.20179 37054 ft 524 kts 155°
2026-05-08 22:35 32.55767 38.23989 37042 ft 524 kts 155°
2026-05-08 22:35 32.49275 38.27764 37054 ft 523 kts 155°
2026-05-08 22:36 32.42740 38.31557 37063 ft 523 kts 155°
2026-05-08 22:36 32.36207 38.35342 37059 ft 523 kts 155°
2026-05-08 22:37 32.29665 38.39127 37050 ft 523 kts 155°
2026-05-08 22:37 32.23122 38.42906 37067 ft 523 kts 155°
2026-05-08 22:38 32.16579 38.46680 37066 ft 524 kts 155°
2026-05-08 22:38 32.10028 38.50451 37077 ft 524 kts 155°
2026-05-08 22:39 32.03471 38.54221 37078 ft 524 kts 155°
2026-05-08 22:39 31.96927 38.57976 37079 ft 524 kts 155°
2026-05-08 22:40 31.90371 38.61734 37093 ft 524 kts 155°
2026-05-08 22:40 31.83811 38.65487 37112 ft 524 kts 155°
2026-05-08 22:41 31.77244 38.69240 37102 ft 525 kts 156°
2026-05-08 22:41 31.70671 38.72990 37099 ft 525 kts 155°
2026-05-08 22:42 31.64320 38.77264 37111 ft 527 kts 150°
2026-05-08 22:42 31.58091 38.81804 37096 ft 527 kts 149°
2026-05-08 22:43 31.51852 38.86327 37102 ft 527 kts 150°
2026-05-08 22:43 31.45593 38.90812 37093 ft 527 kts 150°
2026-05-08 22:44 31.39325 38.95284 37109 ft 527 kts 150°
2026-05-08 22:44 31.33057 38.99750 37110 ft 528 kts 150°
2026-05-08 22:45 31.26915 39.04122 37110 ft 528 kts 150°
2026-05-08 22:45 31.20641 39.08583 37116 ft 528 kts 150°
2026-05-08 22:46 31.14368 39.13036 37119 ft 527 kts 150°
2026-05-08 22:46 31.08102 39.17478 37125 ft 527 kts 150°
2026-05-08 22:47 31.01836 39.21913 37131 ft 526 kts 150°
2026-05-08 22:47 30.95588 39.26334 37132 ft 526 kts 150°
2026-05-08 22:48 30.89336 39.30755 37117 ft 526 kts 150°
2026-05-08 22:48 30.83087 39.35167 37142 ft 525 kts 150°
2026-05-08 22:49 30.76886 39.39539 37137 ft 525 kts 150°
2026-05-08 22:49 30.67483 39.46154 37146 ft 524 kts 150°
2026-05-08 22:50 30.61285 39.50507 37152 ft 524 kts 150°
2026-05-08 22:50 30.55045 39.54883 37146 ft 524 kts 150°
2026-05-08 22:51 30.48805 39.59253 37167 ft 524 kts 150°
2026-05-08 22:51 30.42772 39.64008 37150 ft 526 kts 140°
2026-05-08 22:52 30.37617 39.70014 37156 ft 526 kts 127°
2026-05-08 22:52 30.33257 39.76804 37157 ft 526 kts 125°
2026-05-08 22:53 30.28952 39.83647 37162 ft 526 kts 125°
2026-05-08 22:53 30.24594 39.90458 37149 ft 527 kts 126°
2026-05-08 22:54 30.20204 39.97246 37142 ft 527 kts 126°
2026-05-08 22:54 30.15902 40.03884 37156 ft 527 kts 126°
2026-05-08 22:55 30.11506 40.10664 37155 ft 527 kts 126°
2026-05-08 22:55 30.07107 40.17441 37148 ft 527 kts 126°
2026-05-08 22:56 30.02735 40.24166 37151 ft 527 kts 126°
2026-05-08 22:56 29.98334 40.30917 37152 ft 527 kts 126°
2026-05-08 22:57 29.93919 40.37664 37142 ft 527 kts 127°
2026-05-08 22:57 29.89499 40.44410 37143 ft 527 kts 127°
2026-05-08 22:58 29.85800 40.50051 37150 ft 527 kts 127°
2026-05-08 22:58 29.81413 40.56734 37141 ft 526 kts 127°
2026-05-08 22:59 29.76978 40.63497 37138 ft 525 kts 125°
2026-05-08 22:59 29.73048 40.70504 37145 ft 524 kts 120°
2026-05-08 23:00 29.69234 40.77709 37131 ft 524 kts 120°
2026-05-08 23:00 29.65452 40.84804 37143 ft 524 kts 121°
2026-05-08 23:01 29.61612 40.91927 37154 ft 524 kts 121°
2026-05-08 23:01 29.57756 40.99052 37140 ft 525 kts 121°
2026-05-08 23:02 29.53967 41.06042 37136 ft 526 kts 121°
2026-05-08 23:02 29.50100 41.13171 37127 ft 526 kts 121°
2026-05-08 23:03 29.46226 41.20301 37125 ft 526 kts 121°
2026-05-08 23:03 29.42349 41.27423 37124 ft 526 kts 121°
2026-05-08 23:04 29.38470 41.34540 37123 ft 526 kts 121°
2026-05-08 23:04 29.34586 41.41648 37120 ft 526 kts 122°
2026-05-08 23:05 29.30695 41.48745 37115 ft 525 kts 122°
2026-05-08 23:05 29.26808 41.55821 37112 ft 525 kts 122°
2026-05-08 23:06 29.22924 41.62888 37109 ft 524 kts 122°
2026-05-08 23:06 29.19066 41.69893 37103 ft 523 kts 122°
2026-05-08 23:07 29.15186 41.76928 37102 ft 522 kts 122°
2026-05-08 23:07 29.11311 41.83942 37103 ft 521 kts 123°
2026-05-08 23:08 29.07442 41.90934 37094 ft 520 kts 123°
2026-05-08 23:08 29.03577 41.97906 37095 ft 519 kts 123°
2026-05-08 23:09 28.99796 42.04718 37082 ft 516 kts 124°
2026-05-08 23:09 28.95952 42.11635 37078 ft 515 kts 124°
2026-05-08 23:10 28.92116 42.18526 37083 ft 514 kts 124°
2026-05-08 23:10 28.88289 42.25394 37090 ft 512 kts 125°
2026-05-08 23:11 28.84466 42.32239 37086 ft 511 kts 125°
2026-05-08 23:11 28.80641 42.39076 37075 ft 511 kts 125°
2026-05-08 23:12 28.76818 42.45902 37076 ft 511 kts 126°
2026-05-08 23:12 28.72992 42.52721 37071 ft 511 kts 126°
2026-05-08 23:13 28.69166 42.59531 37073 ft 511 kts 126°
2026-05-08 23:13 28.65320 42.66328 37071 ft 510 kts 128°
2026-05-08 23:14 28.60872 42.72523 37072 ft 503 kts 137°
2026-05-08 23:14 28.56070 42.78316 37067 ft 503 kts 138°
2026-05-08 23:15 28.51295 42.84082 37066 ft 504 kts 137°
2026-05-08 23:15 28.46512 42.89914 37071 ft 505 kts 137°
2026-05-08 23:16 28.41733 42.95760 37060 ft 505 kts 137°
2026-05-08 23:16 28.37049 43.01483 37068 ft 505 kts 137°
2026-05-08 23:17 28.32264 43.07319 37066 ft 505 kts 139°
2026-05-08 23:17 28.27478 43.13144 37065 ft 505 kts 139°
2026-05-08 23:18 28.22692 43.18961 37064 ft 504 kts 139°
2026-05-08 23:18 28.17905 43.24772 37050 ft 504 kts 139°
2026-05-08 23:19 28.13122 43.30570 37056 ft 503 kts 140°
2026-05-08 23:19 28.08344 43.36353 37058 ft 503 kts 140°
2026-05-08 23:20 28.03568 43.42126 37044 ft 502 kts 140°
2026-05-08 23:20 27.98797 43.47887 37051 ft 502 kts 141°
2026-05-08 23:21 27.94020 43.53642 37048 ft 502 kts 141°
2026-05-08 23:21 27.89245 43.59392 37050 ft 501 kts 141°
2026-05-08 23:22 27.84497 43.65101 37039 ft 502 kts 142°
2026-05-08 23:22 27.79587 43.70643 37047 ft 497 kts 145°
2026-05-08 23:23 27.74560 43.76005 37040 ft 497 kts 145°
2026-05-08 23:23 27.69545 43.81380 37043 ft 497 kts 145°
2026-05-08 23:24 27.64558 43.86784 37037 ft 497 kts 145°
2026-05-08 23:24 27.59581 43.92189 37032 ft 497 kts 145°
2026-05-08 23:25 27.54603 43.97585 37035 ft 496 kts 145°
2026-05-08 23:25 27.49726 44.02862 37032 ft 496 kts 145°
2026-05-08 23:26 27.44754 44.08235 37031 ft 494 kts 146°
2026-05-08 23:26 27.39793 44.13588 37038 ft 494 kts 146°
2026-05-08 23:27 27.34833 44.18933 37035 ft 494 kts 146°
2026-05-08 23:27 27.29871 44.24274 37018 ft 493 kts 146°
2026-05-08 23:28 27.24917 44.29601 37021 ft 493 kts 146°
2026-05-08 23:28 27.19962 44.34921 37022 ft 492 kts 146°
2026-05-08 23:29 27.15009 44.40230 37029 ft 492 kts 146°
2026-05-08 23:29 27.10050 44.45530 37022 ft 491 kts 147°
2026-05-08 23:30 27.05132 44.50782 37028 ft 491 kts 147°
2026-05-08 23:30 27.00186 44.56060 37026 ft 491 kts 147°
2026-05-08 23:31 26.95245 44.61332 37022 ft 491 kts 147°
2026-05-08 23:31 26.90307 44.66608 37019 ft 490 kts 147°
2026-05-08 23:32 26.85378 44.71868 37018 ft 489 kts 147°
2026-05-08 23:32 26.80453 44.77117 37029 ft 489 kts 147°
2026-05-08 23:33 26.75528 44.82353 37029 ft 488 kts 147°
2026-05-08 23:33 26.70592 44.87572 37031 ft 488 kts 147°
2026-05-08 23:34 26.65651 44.92789 37045 ft 488 kts 147°
2026-05-08 23:34 26.60710 44.98005 37045 ft 489 kts 147°
2026-05-08 23:35 26.55866 45.03114 37011 ft 488 kts 148°
2026-05-08 23:35 26.50939 45.08308 37027 ft 486 kts 148°
2026-05-08 23:36 26.46023 45.13485 37038 ft 485 kts 148°
2026-05-08 23:36 26.41115 45.18648 37042 ft 484 kts 148°
2026-05-08 23:37 26.36221 45.23791 37030 ft 483 kts 148°
2026-05-08 23:37 26.31338 45.28915 37040 ft 482 kts 148°
2026-05-08 23:38 26.26501 45.33999 37048 ft 481 kts 148°
2026-05-08 23:38 26.21645 45.39118 37043 ft 480 kts 149°
2026-05-08 23:39 26.16801 45.44213 37050 ft 479 kts 149°
2026-05-08 23:39 26.11953 45.49285 37048 ft 478 kts 149°
2026-05-08 23:40 26.07105 45.54344 37045 ft 478 kts 149°
2026-05-08 23:40 26.02255 45.59401 37048 ft 478 kts 149°
2026-05-08 23:41 25.97403 45.64459 37053 ft 479 kts 149°
2026-05-08 23:41 25.92534 45.69529 37034 ft 481 kts 148°
2026-05-08 23:42 25.87644 45.74615 37050 ft 482 kts 148°
2026-05-08 23:42 25.82731 45.79716 37050 ft 485 kts 148°
2026-05-08 23:43 25.77799 45.84835 37055 ft 487 kts 148°
2026-05-08 23:43 25.72846 45.89972 37054 ft 488 kts 148°
2026-05-08 23:44 25.67885 45.95115 37053 ft 488 kts 148°
2026-05-08 23:44 25.63015 46.00155 37050 ft 488 kts 148°
2026-05-08 23:45 25.58053 46.05282 37047 ft 487 kts 148°
2026-05-08 23:45 25.53129 46.10365 37054 ft 487 kts 148°
2026-05-08 23:46 25.48171 46.15478 37058 ft 487 kts 148°
2026-05-08 23:46 25.43215 46.20583 37058 ft 486 kts 147°
2026-05-08 23:47 25.38266 46.25677 37056 ft 486 kts 147°
2026-05-08 23:47 25.33314 46.30767 37064 ft 486 kts 147°
2026-05-08 23:48 25.29163 46.35029 37045 ft 486 kts 147°
2026-05-08 23:48 25.24211 46.40107 37059 ft 486 kts 147°
2026-05-08 23:49 25.19259 46.45182 37063 ft 485 kts 147°
2026-05-08 23:49 25.14310 46.50247 37064 ft 485 kts 147°
2026-05-08 23:50 25.09358 46.55309 37056 ft 485 kts 147°
2026-05-08 23:50 25.04440 46.60332 37069 ft 485 kts 147°
2026-05-08 23:51 24.99644 46.65608 37044 ft 497 kts 138°
2026-05-08 23:51 24.95893 46.72148 37038 ft 516 kts 123°
2026-05-08 23:52 24.93133 46.79483 37048 ft 519 kts 120°
2026-05-08 23:52 24.90483 46.86864 37053 ft 517 kts 120°
2026-05-08 23:53 24.87788 46.94194 37061 ft 516 kts 121°
2026-05-08 23:53 24.85105 47.01345 37047 ft 515 kts 121°
2026-05-08 23:54 24.82364 47.08609 37039 ft 513 kts 121°
2026-05-08 23:55 24.78258 47.19484 37045 ft 512 kts 121°
2026-05-08 23:55 24.75525 47.26717 37044 ft 512 kts 121°
2026-05-08 23:56 24.72788 47.33945 37012 ft 512 kts 121°
2026-05-08 23:56 24.70051 47.41163 37031 ft 511 kts 121°
2026-05-08 23:57 24.67307 47.48385 37019 ft 512 kts 121°
2026-05-08 23:57 24.64560 47.55606 37020 ft 512 kts 121°
2026-05-08 23:58 24.61808 47.62827 37005 ft 512 kts 121°
2026-05-08 23:58 24.59053 47.70045 37016 ft 512 kts 121°
2026-05-08 23:59 24.56295 47.77259 37008 ft 512 kts 121°
2026-05-08 23:59 24.53699 47.84573 36997 ft 515 kts 117°
2026-05-09 00:00 24.51297 47.92000 36990 ft 516 kts 117°
2026-05-09 00:00 24.48907 47.99427 36971 ft 516 kts 117°
2026-05-09 00:01 24.46537 48.06696 36975 ft 514 kts 117°
2026-05-09 00:01 24.44128 48.14024 36970 ft 513 kts 117°
2026-05-09 00:02 24.41704 48.21381 36973 ft 512 kts 117°
2026-05-09 00:02 24.39280 48.28727 36968 ft 511 kts 117°
2026-05-09 00:03 24.36860 48.36053 36959 ft 510 kts 117°
2026-05-09 00:03 24.34440 48.43362 36948 ft 510 kts 117°
2026-05-09 00:04 24.32018 48.50666 36952 ft 509 kts 117°
2026-05-09 00:04 24.29595 48.57958 36944 ft 509 kts 117°
2026-05-09 00:05 24.27169 48.65250 36936 ft 509 kts 117°
2026-05-09 00:05 24.24741 48.72534 36931 ft 508 kts 117°
2026-05-09 00:06 24.22313 48.79804 36935 ft 508 kts 117°
2026-05-09 00:06 24.19886 48.87062 36927 ft 507 kts 117°
2026-05-09 00:07 24.17469 48.94321 36930 ft 508 kts 117°
2026-05-09 00:07 24.15175 49.01471 36930 ft 508 kts 116°
2026-05-09 00:08 24.12854 49.08775 36915 ft 508 kts 116°
2026-05-09 00:08 24.10525 49.16063 36922 ft 507 kts 116°
2026-05-09 00:09 24.08185 49.23338 36923 ft 507 kts 116°
2026-05-09 00:09 24.05839 49.30607 36915 ft 506 kts 116°
2026-05-09 00:10 24.03493 49.37865 36918 ft 506 kts 116°
2026-05-09 00:10 24.01143 49.45122 36904 ft 506 kts 116°
2026-05-09 00:11 23.98797 49.52359 36915 ft 506 kts 116°
2026-05-09 00:11 23.96442 49.59607 36910 ft 506 kts 116°
2026-05-09 00:12 23.94085 49.66849 36907 ft 506 kts 116°
2026-05-09 00:12 23.91727 49.74084 36906 ft 506 kts 116°
2026-05-09 00:13 23.89365 49.81315 36891 ft 505 kts 115°
2026-05-09 00:13 23.87001 49.88541 36897 ft 504 kts 115°
2026-05-09 00:14 23.84653 49.95703 36898 ft 504 kts 115°
2026-05-09 00:14 23.82337 50.02756 36898 ft 504 kts 115°
2026-05-09 00:15 23.79969 50.09953 36899 ft 503 kts 115°
2026-05-09 00:15 23.77600 50.17144 36895 ft 503 kts 115°
2026-05-09 00:16 23.75227 50.24330 36887 ft 503 kts 115°
2026-05-09 00:16 23.72853 50.31509 36889 ft 503 kts 115°
2026-05-09 00:17 23.70474 50.38688 36890 ft 503 kts 115°
2026-05-09 00:17 23.68091 50.45870 36902 ft 503 kts 115°
2026-05-09 00:18 23.65704 50.53051 36893 ft 504 kts 115°
2026-05-09 00:18 23.63313 50.60231 36889 ft 503 kts 115°
2026-05-09 00:19 23.60921 50.67401 36889 ft 503 kts 115°
2026-05-09 00:19 23.58527 50.74565 36881 ft 503 kts 115°
2026-05-09 00:20 23.56128 50.81730 36875 ft 503 kts 115°
2026-05-09 00:20 23.53729 50.88886 36879 ft 502 kts 115°
2026-05-09 00:21 23.51329 50.96029 36872 ft 502 kts 115°
2026-05-09 00:21 23.48972 51.03033 36877 ft 501 kts 115°
2026-05-09 00:22 23.46571 51.10157 36867 ft 501 kts 115°
2026-05-09 00:22 23.44167 51.17276 36871 ft 500 kts 115°
2026-05-09 00:23 23.41764 51.24382 36876 ft 500 kts 115°
2026-05-09 00:23 23.39358 51.31483 36872 ft 500 kts 115°
2026-05-09 00:24 23.36947 51.38585 36866 ft 500 kts 115°
2026-05-09 00:24 23.34538 51.45672 36870 ft 499 kts 115°
2026-05-09 00:25 23.32127 51.52755 36871 ft 499 kts 115°
2026-05-09 00:25 23.29713 51.59831 36867 ft 499 kts 115°
2026-05-09 00:26 23.27313 51.66856 36876 ft 499 kts 115°
2026-05-09 00:26 23.24894 51.73922 36870 ft 499 kts 115°
2026-05-09 00:27 23.22474 51.80984 36862 ft 498 kts 115°
2026-05-09 00:27 23.20052 51.88038 36866 ft 497 kts 115°
2026-05-09 00:28 23.17632 51.95074 36866 ft 497 kts 115°
2026-05-09 00:28 23.15254 52.01975 36867 ft 496 kts 115°
2026-05-09 00:29 23.12830 52.08998 36868 ft 496 kts 115°
2026-05-09 00:29 23.10405 52.16014 36861 ft 496 kts 115°
2026-05-09 00:30 23.07977 52.23028 36864 ft 496 kts 115°
2026-05-09 00:30 23.05543 52.30045 36865 ft 496 kts 115°
2026-05-09 00:31 23.03107 52.37059 36872 ft 496 kts 115°
2026-05-09 00:31 23.00669 52.44068 36861 ft 496 kts 115°
2026-05-09 00:32 22.98230 52.51067 36857 ft 496 kts 115°
2026-05-09 00:32 22.95786 52.58068 36860 ft 496 kts 115°
2026-05-09 00:33 22.93754 52.63884 36861 ft 496 kts 115°
2026-05-09 00:33 22.91306 52.70876 36862 ft 495 kts 115°
2026-05-09 00:34 22.88858 52.77857 36860 ft 495 kts 115°
2026-05-09 00:34 22.86407 52.84836 36861 ft 495 kts 115°
2026-05-09 00:35 22.83954 52.91810 36860 ft 495 kts 115°
2026-05-09 00:35 22.81497 52.98783 36853 ft 495 kts 115°
2026-05-09 00:36 22.79088 53.05612 36852 ft 495 kts 115°
2026-05-09 00:36 22.76627 53.12577 36856 ft 495 kts 115°
2026-05-09 00:37 22.74164 53.19539 36855 ft 495 kts 115°
2026-05-09 00:37 22.71992 53.26631 36854 ft 500 kts 106°
2026-05-09 00:38 22.71016 53.34112 36854 ft 506 kts 95°
2026-05-09 00:38 22.70918 53.41736 36861 ft 507 kts 93°
2026-05-09 00:39 22.70891 53.49332 36846 ft 508 kts 94°
2026-05-09 00:39 22.70819 53.57025 36847 ft 508 kts 94°
2026-05-09 00:40 22.70713 53.64619 36846 ft 507 kts 94°
2026-05-09 00:40 22.70596 53.72253 36846 ft 506 kts 94°
2026-05-09 00:41 22.70420 53.83687 36845 ft 506 kts 94°
2026-05-09 00:41 22.70299 53.91307 36844 ft 506 kts 94°
2026-05-09 00:42 22.70174 53.98921 36846 ft 506 kts 94°
2026-05-09 00:42 22.70050 54.06345 36848 ft 506 kts 94°
2026-05-09 00:43 22.69919 54.13965 36842 ft 507 kts 94°
2026-05-09 00:43 22.69784 54.21604 36835 ft 507 kts 94°
2026-05-09 00:44 22.69645 54.29240 36832 ft 508 kts 94°
2026-05-09 00:44 22.69503 54.36883 36842 ft 508 kts 94°
2026-05-09 00:45 22.69596 54.44537 36833 ft 511 kts 85°
2026-05-09 00:45 22.71271 54.52041 36830 ft 516 kts 71°
2026-05-09 00:46 22.74288 54.59108 36832 ft 517 kts 65°
2026-05-09 00:46 22.77482 54.66101 36829 ft 518 kts 65°
2026-05-09 00:47 22.80622 54.73124 36830 ft 518 kts 65°
2026-05-09 00:47 22.83713 54.80172 36823 ft 518 kts 66°
2026-05-09 00:48 22.86772 54.87178 36828 ft 518 kts 66°
2026-05-09 00:48 22.89854 54.94235 36831 ft 518 kts 66°
2026-05-09 00:49 22.92860 55.01123 36827 ft 517 kts 65°
2026-05-09 00:49 22.95933 55.08173 36848 ft 517 kts 65°
2026-05-09 00:50 22.99003 55.15226 36825 ft 516 kts 65°
2026-05-09 00:50 23.02596 55.21903 36830 ft 514 kts 45°
2026-05-09 00:51 23.05326 55.24375 36848 ft 512 kts 31°
2026-05-09 00:51 23.08499 55.26076 36826 ft 508 kts 14°
2026-05-09 00:51 23.15309 55.27959 36849 ft 506 kts 11°
2026-05-09 00:52 23.22153 55.29847 36841 ft 509 kts 12°
2026-05-09 00:52 23.29015 55.31841 36835 ft 511 kts 13°
2026-05-09 00:53 23.35888 55.33871 36839 ft 512 kts 13°
2026-05-09 00:53 23.42775 55.35901 36845 ft 512 kts 13°
2026-05-09 00:54 23.49657 55.37927 36844 ft 512 kts 12°
2026-05-09 00:54 23.56527 55.39957 36843 ft 511 kts 13°
2026-05-09 00:55 23.63389 55.41999 36843 ft 511 kts 13°
2026-05-09 00:55 23.70188 55.44026 36585 ft 499 kts 13°
2026-05-09 00:56 23.73521 55.45019 36027 ft 497 kts 12°
2026-05-09 00:56 23.76869 55.46015 35256 ft 500 kts 12°
2026-05-09 00:56 23.80229 55.47016 34598 ft 500 kts 13°
2026-05-09 00:56 23.83569 55.48012 34085 ft 496 kts 13°
2026-05-09 00:57 23.86882 55.49001 33642 ft 491 kts 12°
2026-05-09 00:57 23.90153 55.49974 33161 ft 486 kts 12°
2026-05-09 00:57 23.93407 55.50940 32632 ft 482 kts 13°
2026-05-09 00:57 23.96635 55.51924 32079 ft 481 kts 16°
2026-05-09 00:58 23.99733 55.53288 31517 ft 481 kts 25°
2026-05-09 00:58 24.02611 55.55079 31053 ft 478 kts 32°
2026-05-09 00:58 24.05278 55.57241 30567 ft 476 kts 40°
2026-05-09 00:58 24.07733 55.59656 30105 ft 473 kts 42°
2026-05-09 00:59 24.10140 55.62094 29575 ft 470 kts 43°
2026-05-09 00:59 24.12521 55.64517 29065 ft 466 kts 43°
2026-05-09 00:59 24.14895 55.66915 28575 ft 462 kts 42°
2026-05-09 00:59 24.17250 55.69273 28098 ft 457 kts 42°
2026-05-09 01:00 24.19593 55.71605 27613 ft 454 kts 42°
2026-05-09 01:00 24.21925 55.73919 27133 ft 450 kts 42°
2026-05-09 01:00 24.24236 55.76211 26664 ft 447 kts 43°
2026-05-09 01:00 24.26530 55.78486 26226 ft 443 kts 43°
2026-05-09 01:01 24.28805 55.80746 25802 ft 439 kts 43°
2026-05-09 01:01 24.31056 55.82983 25394 ft 435 kts 43°
2026-05-09 01:01 24.33253 55.85169 24974 ft 432 kts 43°
2026-05-09 01:01 24.35471 55.87377 24537 ft 429 kts 43°
2026-05-09 01:02 24.37677 55.89573 24090 ft 428 kts 43°
2026-05-09 01:02 24.39872 55.91762 23670 ft 425 kts 43°
2026-05-09 01:02 24.42052 55.93939 23239 ft 422 kts 43°
2026-05-09 01:02 24.44211 55.96097 22818 ft 418 kts 44°
2026-05-09 01:03 24.46351 55.98239 22398 ft 414 kts 44°
2026-05-09 01:03 24.48370 56.00260 21985 ft 410 kts 44°
2026-05-09 01:03 24.50467 56.02359 21562 ft 407 kts 44°
2026-05-09 01:03 24.52551 56.04445 21129 ft 404 kts 44°
2026-05-09 01:04 24.54616 56.06513 20731 ft 400 kts 44°
2026-05-09 01:04 24.56666 56.08563 20338 ft 397 kts 44°
2026-05-09 01:04 24.58763 56.10513 19878 ft 394 kts 36°
2026-05-09 01:04 24.61113 56.11960 19271 ft 381 kts 24°
2026-05-09 01:05 24.63601 56.12886 18306 ft 376 kts 13°
2026-05-09 01:05 24.66167 56.13365 17193 ft 372 kts
2026-05-09 01:05 24.71204 56.14205 15226 ft 358 kts 10°
2026-05-09 01:06 24.73580 56.14631 14840 ft 334 kts 10°
2026-05-09 01:06 24.75840 56.15044 14477 ft 327 kts 10°
2026-05-09 01:06 24.78101 56.15365 14081 ft 331 kts
2026-05-09 01:06 24.80425 56.15106 13717 ft 343 kts 348°
2026-05-09 01:07 24.82704 56.14222 13258 ft 351 kts 336°
2026-05-09 01:07 24.84916 56.13083 12793 ft 351 kts 335°
2026-05-09 01:07 24.87109 56.11933 12476 ft 345 kts 335°
2026-05-09 01:07 24.89248 56.10828 12308 ft 335 kts 335°
2026-05-09 01:08 24.91339 56.09771 12187 ft 326 kts 336°
2026-05-09 01:08 24.93372 56.08756 12033 ft 316 kts 336°
2026-05-09 01:08 24.95348 56.07773 11924 ft 306 kts 336°
2026-05-09 01:08 24.97211 56.06772 11854 ft 291 kts 327°
2026-05-09 01:09 24.98597 56.05170 11336 ft 294 kts 296°
2026-05-09 01:09 24.99153 56.03027 10993 ft 290 kts 274°
2026-05-09 01:09 24.99253 56.00811 10668 ft 289 kts 271°
2026-05-09 01:09 24.99302 55.98605 10395 ft 286 kts 271°
2026-05-09 01:10 24.99347 55.96422 10132 ft 284 kts 271°
2026-05-09 01:10 24.99395 55.94254 9849 ft 282 kts 271°
2026-05-09 01:10 24.99449 55.92103 9549 ft 280 kts 272°
2026-05-09 01:10 24.99507 55.89956 9210 ft 280 kts 272°
2026-05-09 01:11 24.99567 55.87819 8911 ft 278 kts 272°
2026-05-09 01:11 24.99627 55.85700 8623 ft 276 kts 272°
2026-05-09 01:11 24.99687 55.83601 8328 ft 272 kts 273°
2026-05-09 01:11 25.00094 55.81614 7834 ft 265 kts 297°
2026-05-09 01:12 25.01046 55.79893 7151 ft 262 kts 302°
2026-05-09 01:12 25.01986 55.78247 6857 ft 245 kts 301°
2026-05-09 01:12 25.02913 55.76676 6579 ft 248 kts 302°
2026-05-09 01:12 25.03853 55.75066 6334 ft 256 kts 301°
2026-05-09 01:13 25.04764 55.73461 6163 ft 237 kts 301°
2026-05-09 01:13 25.05598 55.71971 5855 ft 222 kts 301°
2026-05-09 01:13 25.06406 55.70517 5218 ft 224 kts 301°
2026-05-09 01:13 25.07225 55.69040 4537 ft 227 kts 301°
2026-05-09 01:14 25.08029 55.67592 4339 ft 208 kts 301°
2026-05-09 01:14 25.08756 55.66282 4377 ft 193 kts 301°
2026-05-09 01:14 25.09447 55.65037 4427 ft 189 kts 300°
2026-05-09 01:14 25.10131 55.63801 4543 ft 190 kts 300°
2026-05-09 01:15 25.10834 55.62533 4500 ft 196 kts 300°
2026-05-09 01:15 25.11551 55.61239 4241 ft 197 kts 301°
2026-05-09 01:15 25.12239 55.59999 3989 ft 182 kts 301°
2026-05-09 01:15 25.12893 55.58818 3776 ft 183 kts 301°
2026-05-09 01:16 25.13572 55.57592 3588 ft 190 kts 301°
2026-05-09 01:16 25.14264 55.56345 3340 ft 191 kts 301°
2026-05-09 01:16 25.14951 55.55105 3094 ft 187 kts 301°
2026-05-09 01:17 25.16284 55.52699 2621 ft 180 kts 302°
2026-05-09 01:17 25.16921 55.51548 2405 ft 173 kts 302°
2026-05-09 01:17 25.17550 55.50412 2216 ft 171 kts 302°
2026-05-09 01:17 25.18162 55.49307 1972 ft 166 kts 302°
2026-05-09 01:18 25.18759 55.48229 1757 ft 164 kts 301°
2026-05-09 01:18 25.19339 55.47182 1555 ft 154 kts 301°
2026-05-09 01:18 25.19866 55.46231 1359 ft 139 kts 301°
2026-05-09 01:18 25.20363 55.45332 1226 ft 140 kts 301°
2026-05-09 01:19 25.20877 55.44405 1031 ft 142 kts 301°
2026-05-09 01:19 25.21405 55.43451 846 ft 145 kts 300°
2026-05-09 01:19 25.21932 55.42497 686 ft 149 kts 298°
2026-05-09 01:19 25.22476 55.41514 465 ft 148 kts 300°
2026-05-09 01:20 25.23018 55.40546 309 ft 149 kts 298°
2026-05-09 01:20 25.23551 55.39563 103 ft 149 kts 299°
2026-05-09 01:20 25.24071 55.38622 34 ft 131 kts 301°
2026-05-09 01:20 25.24450 55.37939 35 ft 77 kts 302°
2026-05-09 01:21 25.24647 55.37585 33 ft 44 kts 301°
2026-05-09 01:21 25.24752 55.37381 33 ft 45 kts 289°
2026-05-09 01:21 25.24786 55.37148 32 ft 20 kts 273°
2026-05-09 01:21 25.24790 55.37044 29 ft 0 kts 271°
2026-05-09 01:22 25.24790 55.37038 29 ft 4 kts 271°
2026-05-09 01:22 25.24796 55.36981 28 ft 11 kts 283°
2026-05-09 01:22 25.24834 55.36885 28 ft 16 kts 298°
2026-05-09 01:23 25.24871 55.36749 27 ft 21 kts 281°
2026-05-09 01:23 25.24935 55.36589 27 ft 25 kts 301°
2026-05-09 01:23 25.25017 55.36445 27 ft 23 kts 302°
2026-05-09 01:23 25.25094 55.36307 27 ft 14 kts 302°
2026-05-09 01:24 25.25153 55.36204 27 ft 18 kts 302°
2026-05-09 01:24 25.25202 55.36099 27 ft 9 kts 267°
2026-05-09 01:24 25.25152 55.36045 26 ft 12 kts 212°
2026-05-09 01:24 25.25082 55.35997 29 ft 9 kts 211°
2026-05-09 01:25 25.25061 55.35984 29 ft 2 kts 211°
2026-05-09 01:25 25.25060 55.35983 29 ft 0 kts 211°